TimeMDT,TemperatureF,Dew PointF,Humidity,Sea Level PressureIn,VisibilityMPH,Wind Direction,Wind SpeedMPH,Gust SpeedMPH,PrecipitationIn,Events,Conditions,WindDirDegrees,DateUTC
12:15 AM,53.6,35.6,51,30.22,10.0,Calm,Calm,-,N/A,,Clear,0,2013-08-04 06:15:00
12:35 AM,51.8,35.6,54,30.21,10.0,North,6.9,-,N/A,,Clear,360,2013-08-04 06:35:00
12:55 AM,51.8,35.6,54,30.22,10.0,NNE,5.8,-,N/A,,Clear,20,2013-08-04 06:55:00
1:15 AM,48.2,35.6,62,30.22,10.0,Calm,Calm,-,N/A,,Clear,0,2013-08-04 07:15:00
1:55 AM,48.2,35.6,62,30.22,10.0,North,5.8,-,N/A,,Clear,10,2013-08-04 07:55:00
2:15 AM,48.2,35.6,62,30.22,10.0,NE,3.5,-,N/A,,Clear,40,2013-08-04 08:15:00
2:35 AM,50.0,35.6,58,30.22,10.0,North,4.6,-,N/A,,Clear,360,2013-08-04 08:35:00
2:55 AM,44.6,35.6,71,30.23,10.0,NNE,4.6,-,N/A,,Clear,20,2013-08-04 08:55:00
3:15 AM,44.6,35.6,71,30.22,10.0,NNE,4.6,-,N/A,,Clear,20,2013-08-04 09:15:00
3:35 AM,44.6,35.6,71,30.23,10.0,NNW,4.6,-,N/A,,Clear,340,2013-08-04 09:35:00
3:55 AM,44.6,35.6,71,30.23,10.0,North,5.8,-,N/A,,Clear,360,2013-08-04 09:55:00
4:15 AM,44.6,35.6,71,30.23,10.0,NNE,3.5,-,N/A,,Clear,30,2013-08-04 10:15:00
4:35 AM,41.0,33.8,76,30.23,10.0,North,6.9,-,N/A,,Clear,10,2013-08-04 10:35:00
4:55 AM,41.0,35.6,81,30.23,10.0,North,3.5,-,N/A,,Clear,10,2013-08-04 10:55:00
5:15 AM,41.0,35.6,81,30.24,10.0,NNE,4.6,-,N/A,,Clear,20,2013-08-04 11:15:00
5:35 AM,41.0,35.6,81,30.24,10.0,North,8.1,-,N/A,,Clear,10,2013-08-04 11:35:00
5:55 AM,39.2,35.6,87,30.25,10.0,NNE,5.8,-,N/A,,Clear,30,2013-08-04 11:55:00
6:15 AM,39.2,35.6,87,30.25,10.0,North,5.8,-,N/A,,Clear,10,2013-08-04 12:15:00
6:35 AM,39.2,35.6,87,30.26,10.0,Calm,Calm,-,N/A,,Clear,0,2013-08-04 12:35:00
6:51 AM,41.0,35.6,81,30.26,10.0,Calm,Calm,-,N/A,,Clear,0,2013-08-04 12:51:00
7:51 AM,48.2,37.4,66,30.28,10.0,Calm,Calm,-,N/A,,Clear,0,2013-08-04 13:51:00
8:51 AM,53.6,35.6,51,30.27,10.0,Calm,Calm,-,N/A,,Clear,0,2013-08-04 14:51:00
9:51 AM,60.8,33.8,36,30.27,10.0,Calm,Calm,-,N/A,,Clear,0,2013-08-04 15:51:00
10:54 AM,66.2,35.6,32,30.25,10.0,Calm,Calm,-,N/A,,Clear,0,2013-08-04 16:54:00
11:52 AM,71.6,35.6,27,30.23,10.0,SSW,5.8,-,N/A,,Clear,200,2013-08-04 17:52:00
12:51 PM,78.8,35.6,21,30.21,10.0,South,6.9,-,N/A,,Clear,170,2013-08-04 18:51:00
1:51 PM,82.4,28.4,14,30.20,10.0,South,11.5,17.3,N/A,,Clear,170,2013-08-04 19:51:00
2:52 PM,84.2,26.6,12,30.18,10.0,SW,16.1,25.3,N/A,,Clear,230,2013-08-04 20:52:00
3:51 PM,84.2,26.6,12,30.17,10.0,West,16.1,28.8,N/A,,Clear,260,2013-08-04 21:51:00
4:51 PM,82.4,28.4,14,30.16,10.0,SW,12.7,-,N/A,,Clear,230,2013-08-04 22:51:00
5:56 PM,82.4,26.6,13,30.16,10.0,SSW,10.4,17.3,N/A,,Clear,210,2013-08-04 23:56:00
6:59 PM,80.6,24.8,13,30.16,10.0,WSW,10.4,-,N/A,,Clear,250,2013-08-05 00:59:00
7:51 PM,78.8,26.6,15,30.16,10.0,West,6.9,-,N/A,,Clear,270,2013-08-05 01:51:00
8:51 PM,73.4,24.8,16,30.17,10.0,Calm,Calm,-,N/A,,Clear,0,2013-08-05 02:51:00
8:55 PM,71.6,24.8,17,30.17,10.0,Calm,Calm,-,N/A,,Clear,0,2013-08-05 02:55:00
9:15 PM,68.0,23.0,18,30.18,10.0,Calm,Calm,-,N/A,,Clear,0,2013-08-05 03:15:00
9:35 PM,69.8,21.2,16,30.18,10.0,East,3.5,-,N/A,,Clear,90,2013-08-05 03:35:00
9:55 PM,66.2,23.0,19,30.19,10.0,Calm,Calm,-,N/A,,Clear,0,2013-08-05 03:55:00
10:15 PM,66.2,21.2,18,30.20,10.0,Calm,Calm,-,N/A,,Clear,0,2013-08-05 04:15:00
10:35 PM,62.6,23.0,22,30.20,10.0,NE,3.5,-,N/A,,Clear,50,2013-08-05 04:35:00
10:55 PM,55.4,28.4,36,30.20,10.0,Calm,Calm,-,N/A,,Clear,0,2013-08-05 04:55:00
11:15 PM,53.6,28.4,38,30.20,10.0,Calm,Calm,-,N/A,,Clear,0,2013-08-05 05:15:00
11:35 PM,51.8,28.4,41,30.20,10.0,North,6.9,-,N/A,,Clear,360,2013-08-05 05:35:00
11:55 PM,51.8,30.2,44,30.20,10.0,North,9.2,-,N/A,,Clear,360,2013-08-05 05:55:00